TimeCDT,TemperatureF,Dew PointF,Humidity,Sea Level PressureIn,VisibilityMPH,Wind Direction,Wind SpeedMPH,Gust SpeedMPH,PrecipitationIn,Events,Conditions,WindDirDegrees,DateUTC
12:53 AM,57.0,52.0,83,30.05,10.0,SSE,4.6,-,N/A,,Clear,160,2012-10-04 05:53:00
1:53 AM,60.1,52.0,75,30.06,10.0,SSE,4.6,-,N/A,,Clear,150,2012-10-04 06:53:00
2:53 AM,59.0,53.1,81,30.07,10.0,SE,4.6,-,N/A,,Clear,140,2012-10-04 07:53:00
3:53 AM,54.0,51.1,90,30.08,10.0,Calm,Calm,-,N/A,,Clear,0,2012-10-04 08:53:00
4:53 AM,55.9,52.0,87,30.09,10.0,Calm,Calm,-,N/A,,Clear,0,2012-10-04 09:53:00
5:53 AM,55.0,52.0,89,30.12,10.0,Calm,Calm,-,N/A,,Clear,0,2012-10-04 10:53:00
6:53 AM,53.1,51.1,93,30.15,10.0,Calm,Calm,-,N/A,,Clear,0,2012-10-04 11:53:00
7:53 AM,54.0,52.0,93,30.17,10.0,Calm,Calm,-,N/A,,Clear,0,2012-10-04 12:53:00
8:53 AM,64.9,55.9,73,30.18,10.0,SW,3.5,-,N/A,,Clear,230,2012-10-04 13:53:00
9:53 AM,71.1,55.9,59,30.17,10.0,South,11.5,16.1,N/A,,Clear,180,2012-10-04 14:53:00
10:53 AM,75.0,54.0,48,30.16,10.0,SSW,16.1,21.9,N/A,,Clear,210,2012-10-04 15:53:00
11:53 AM,78.1,54.0,43,30.16,10.0,SW,12.7,-,N/A,,Clear,220,2012-10-04 16:53:00
12:53 PM,80.1,55.0,42,30.14,10.0,South,12.7,-,N/A,,Clear,170,2012-10-04 17:53:00
1:53 PM,80.1,54.0,40,30.12,10.0,South,9.2,18.4,N/A,,Clear,180,2012-10-04 18:53:00
2:53 PM,81.0,54.0,39,30.10,10.0,SW,8.1,-,N/A,,Clear,220,2012-10-04 19:53:00
3:53 PM,81.0,55.0,41,30.10,10.0,South,9.2,-,N/A,,Clear,170,2012-10-04 20:53:00
4:53 PM,80.1,54.0,40,30.09,10.0,SSW,11.5,-,N/A,,Clear,200,2012-10-04 21:53:00
5:53 PM,77.0,57.0,50,30.10,10.0,South,8.1,-,N/A,,Clear,190,2012-10-04 22:53:00
6:53 PM,73.9,57.0,55,30.10,10.0,SSE,3.5,-,N/A,,Clear,150,2012-10-04 23:53:00
7:53 PM,66.9,57.9,73,30.11,10.0,Calm,Calm,-,N/A,,Scattered Clouds,0,2012-10-05 00:53:00
8:53 PM,64.9,57.9,78,30.11,10.0,Calm,Calm,-,N/A,,Mostly Cloudy,0,2012-10-05 01:53:00
9:53 PM,68.0,59.0,73,30.12,10.0,Calm,Calm,-,N/A,,Overcast,0,2012-10-05 02:53:00
10:53 PM,68.0,60.1,76,30.12,10.0,Calm,Calm,-,N/A,,Overcast,0,2012-10-05 03:53:00
11:53 PM,69.1,59.0,70,30.10,10.0,Calm,Calm,-,N/A,,Overcast,0,2012-10-05 04:53:00